Weather History for Avoca, PA

Change the Weather History Date:

Thursday, June 13, 2013

  Actual Average Record
Temperature  
Mean Temperature 61 °F 67 °F  
Max Temperature 67 °F 77 °F 92 °F (1984)
Min Temperature 55 °F 56 °F 40 °F (1979)
Degree Days  
Heating Degree Days 4 2  
Month to date heating degree days 17 37  
Since 1 June heating degree days 17 37  
Since 1 July heating degree days 5826 6238  
Cooling Degree Days 0 4  
Month to date cooling degree days 30 36  
Year to date cooling degree days 94 73  
Since 1 June cooling degree days 30 36  
Growing Degree Days 10 (Base 50)    
Moisture  
Dew Point 56 °F    
Average Humidity 80    
Maximum Humidity 93    
Minimum Humidity 67    
Precipitation  
Precipitation 1.17 in 0.14 in 1.33 in (1982)
Month to date precipitation 3.04 1.81  
Year to date precipitation 12.81 15.61  
Sea Level Pressure  
Sea Level Pressure 29.58 in    
Wind  
Wind Speed 6 mph (NE)    
Max Wind Speed 13 mph    
Max Gust Speed 21 mph    
Visibility 5 miles    
Events Rain , Thunderstorm    
T = Trace of Precipitation, MM = Missing Value Source: NWS Daily Summary

Daily Weather History Graph

Daily Weather History Graph

Search for Another Location

Airport:

Trip Planner

Search our weather history database for the weather conditions in past years. The results will help you decide how hot, cold, wet, or windy it might be!

Date:

Astronomy

Jun. 13, 2013 Rise Set
Actual Time 5:29 AM EDT 8:37 PM EDT
Civil Twilight 4:55 AM EDT 9:11 PM EDT
Nautical Twilight 4:11 AM EDT 9:54 PM EDT
Astronomical Twilight 3:20 AM EDT 10:45 PM EDT
Moon 10:05 AM EDT (6/13) 11:39 PM EDT (6/13)
Length of Visible Light 16h 15m
Length of Day
15h 08m
Waxing Crescent, 21% of the Moon is Illuminated
Jun 13
Waxing Crescent
Jun 16
First Quarter
Jun 23
Full
Jun 30
Last Quarter
Jul 8
New

Hourly Weather History & Observations

Time (EDT) Temp. Dew Point Humidity Pressure Visibility Wind Dir Wind Speed Gust Speed Precip Events Conditions
12:54 AM 61.0 °F 53.1 °F 75% 29.82 in 10.0 mi Variable 3.5 mph - N/A   Overcast
1:54 AM 61.0 °F 52.0 °F 72% 29.79 in 10.0 mi East 5.8 mph - N/A   Overcast
2:54 AM 62.1 °F 52.0 °F 70% 29.76 in 10.0 mi ENE 3.5 mph - N/A   Mostly Cloudy
3:54 AM 61.0 °F 54.0 °F 78% 29.76 in 3.0 mi Calm Calm - 0.02 in Rain Rain
4:54 AM 60.1 °F 55.9 °F 86% 29.73 in 10.0 mi Calm Calm - 0.00 in   Overcast
5:54 AM 63.0 °F 55.0 °F 75% 29.72 in 7.0 mi Calm Calm - 0.03 in Rain Light Rain
6:03 AM 62.6 °F 57.2 °F 82% 29.75 in 3.0 mi West 6.9 mph - 0.02 in Rain , Thunderstorm Thunderstorms and Rain
6:10 AM 60.8 °F 57.2 °F 88% 29.74 in 2.0 mi Calm Calm - 0.09 in Rain , Thunderstorm Heavy Thunderstorms and Rain
6:19 AM 60.8 °F 55.4 °F 82% 29.71 in 6.0 mi Variable 4.6 mph - 0.11 in Rain , Thunderstorm Light Thunderstorms and Rain
6:33 AM 60.8 °F 55.4 °F 82% 29.70 in 8.0 mi East 5.8 mph - 0.12 in Rain Light Rain
6:54 AM 61.0 °F 55.9 °F 83% 29.67 in 7.0 mi North 3.5 mph - 0.15 in Rain Light Rain
7:54 AM 61.0 °F 55.9 °F 83% 29.66 in 10.0 mi ENE 5.8 mph - 0.01 in   Overcast
8:35 AM 60.8 °F 55.4 °F 82% 29.68 in 2.5 mi NE 4.6 mph - 0.09 in Rain Rain
8:45 AM 60.8 °F 55.4 °F 82% 29.68 in 1.2 mi Calm Calm - 0.17 in Rain Heavy Rain
8:54 AM 60.1 °F 55.0 °F 83% 29.67 in 2.5 mi Variable 4.6 mph - 0.21 in Rain Rain
9:01 AM 60.8 °F 55.4 °F 82% 29.69 in 1.8 mi NW 4.6 mph - 0.03 in Rain Heavy Rain
9:12 AM 59.0 °F 55.4 °F 88% 29.66 in 2.0 mi Variable 4.6 mph - 0.08 in Rain Heavy Rain
9:26 AM 60.8 °F 55.4 °F 82% 29.62 in 5.0 mi NE 9.2 mph - 0.11 in Rain Light Rain
9:54 AM 61.0 °F 55.9 °F 83% 29.58 in 10.0 mi Variable 3.5 mph - 0.12 in Rain Light Rain
10:36 AM 62.6 °F 57.2 °F 82% 29.57 in 10.0 mi North 6.9 mph - 0.00 in   Overcast
10:54 AM 63.0 °F 57.0 °F 81% 29.56 in 10.0 mi NNE 10.4 mph - 0.00 in   Overcast
11:54 AM 64.0 °F 57.9 °F 80% 29.56 in 10.0 mi Variable 3.5 mph - N/A   Overcast
12:54 PM 64.9 °F 59.0 °F 81% 29.51 in 10.0 mi Calm Calm - N/A   Overcast
1:54 PM 64.9 °F 59.0 °F 81% 29.50 in 10.0 mi Variable 5.8 mph - N/A   Overcast
2:54 PM 63.0 °F 57.9 °F 84% 29.47 in 5.0 mi ESE 9.2 mph 18.4 mph 0.00 in Rain Light Rain
3:17 PM 62.6 °F 59.0 °F 88% 29.49 in 2.0 mi Variable 5.8 mph - 0.02 in Rain Rain
3:32 PM 62.6 °F 59.0 °F 88% 29.49 in 4.0 mi North 8.1 mph - 0.03 in Rain Light Rain
3:43 PM 62.6 °F 59.0 °F 88% 29.49 in 1.8 mi East 8.1 mph 17.3 mph 0.05 in Rain Rain
3:54 PM 62.1 °F 59.0 °F 90% 29.48 in 2.0 mi NE 5.8 mph - 0.07 in Rain Light Rain
4:04 PM 62.6 °F 59.0 °F 88% 29.50 in 3.0 mi NE 5.8 mph - 0.01 in Rain Light Rain
4:07 PM 62.6 °F 59.0 °F 88% 29.50 in 2.5 mi NNE 4.6 mph - 0.01 in Rain Light Rain
4:18 PM 62.6 °F 59.0 °F 88% 29.50 in 1.8 mi NNE 5.8 mph - 0.03 in Rain Light Rain
4:21 PM 62.6 °F 60.8 °F 94% 29.50 in 2.0 mi NE 6.9 mph - 0.04 in Rain Light Rain
4:27 PM 62.6 °F 60.8 °F 94% 29.50 in 3.0 mi NE 4.6 mph - 0.04 in Rain Light Rain
4:42 PM 62.6 °F 60.8 °F 94% 29.49 in 6.0 mi NE 5.8 mph - 0.04 in Rain Light Rain
4:54 PM 62.1 °F 59.0 °F 90% 29.48 in 8.0 mi ENE 8.1 mph - 0.04 in Rain Light Rain
5:50 PM 60.8 °F 57.2 °F 88% 29.48 in 2.5 mi ENE 6.9 mph 17.3 mph 0.03 in Rain Light Rain
5:51 PM 61.0 °F 57.0 °F 87% 29.47 in 2.5 mi Variable 6.9 mph - 0.03 in Rain Light Rain
6:01 PM 60.8 °F 57.2 °F 88% 29.48 in 1.2 mi Variable 5.8 mph - 0.04 in Rain Heavy Rain
6:15 PM 60.8 °F 57.2 °F 88% 29.48 in 2.0 mi Calm Calm - 0.07 in Rain Light Rain
6:29 PM 60.8 °F 57.2 °F 88% 29.48 in 4.0 mi Variable 5.8 mph - 0.08 in Rain Light Rain
6:36 PM 60.8 °F 57.2 °F 88% 29.48 in 1.8 mi NE 6.9 mph 16.1 mph 0.09 in Rain Rain
6:43 PM 60.8 °F 55.4 °F 82% 29.48 in 2.0 mi ENE 9.2 mph - 0.11 in Rain Rain
6:51 PM 59.0 °F 57.2 °F 94% 29.48 in 1.5 mi ENE 10.4 mph - 0.12 in Rain Rain
6:54 PM 59.0 °F 55.9 °F 90% 29.47 in 1.5 mi ENE 8.1 mph - 0.13 in Rain Rain
7:01 PM 59.0 °F 55.4 °F 88% 29.49 in 1.8 mi ENE 11.5 mph - 0.01 in Rain Light Rain
7:12 PM 59.0 °F 55.4 °F 88% 29.49 in 1.8 mi ENE 12.7 mph 19.6 mph 0.02 in Rain Light Rain
7:20 PM 59.0 °F 55.4 °F 88% 29.50 in 2.5 mi ENE 6.9 mph 19.6 mph 0.03 in Rain Light Rain
7:25 PM 59.0 °F 55.4 °F 88% 29.50 in 3.0 mi NE 8.1 mph - 0.03 in Rain Light Rain
7:40 PM 57.2 °F 55.4 °F 94% 29.51 in 1.8 mi NE 8.1 mph - 0.04 in Rain Light Rain
7:47 PM 57.2 °F 55.4 °F 94% 29.52 in 1.8 mi NE 8.1 mph - 0.04 in Rain Light Rain
7:54 PM 57.9 °F 55.9 °F 93% 29.51 in 2.5 mi NE 10.4 mph - 0.05 in Rain Light Rain
8:03 PM 57.2 °F 55.4 °F 94% 29.53 in 2.5 mi NE 10.4 mph - 0.00 in Rain Rain
8:11 PM 57.2 °F 55.4 °F 94% 29.53 in 3.0 mi NE 10.4 mph - 0.02 in Rain Rain
8:16 PM 57.2 °F 55.4 °F 94% 29.54 in 2.5 mi NE 11.5 mph - 0.03 in Rain Rain
8:36 PM 57.2 °F 55.4 °F 94% 29.54 in 3.0 mi NE 8.1 mph - 0.08 in Rain Rain
8:54 PM 57.0 °F 55.0 °F 93% 29.54 in 6.0 mi NE 8.1 mph - 0.11 in Rain Rain
9:02 PM 57.2 °F 55.4 °F 94% 29.55 in 7.0 mi NE 8.1 mph - 0.01 in Rain Light Rain
9:54 PM 55.9 °F 54.0 °F 93% 29.59 in 6.0 mi NNE 6.9 mph - 0.05 in Rain Rain
10:54 PM 55.9 °F 53.1 °F 90% 29.61 in 8.0 mi NNE 9.2 mph - 0.08 in Rain Light Rain
11:54 PM 55.0 °F 53.1 °F 93% 29.62 in 10.0 mi NE 8.1 mph - 0.03 in Rain Light Rain